Time,TemperatureF,DewpointF,PressureIn,WindDirection,WindDirectionDegrees,WindSpeedMPH,WindSpeedGustMPH,Humidity,HourlyPrecipIn,Conditions,Clouds,dailyrainin,SoftwareType,DateUTC
2013-11-20 00:01:00,28.8,16.0,29.86,ENE,67,3.7,13.0,56,0.00,,,0.00,Rainwise IP-100,2013-11-20 05:01:00,
2013-11-20 00:02:00,28.8,16.0,29.86,NNE,22,6.5,13.0,56,0.00,,,0.00,Rainwise IP-100,2013-11-20 05:02:00,
2013-11-20 00:03:00,28.8,16.0,29.86,ENE,67,4.2,8.0,56,0.00,,,0.00,Rainwise IP-100,2013-11-20 05:03:00,
2013-11-20 00:06:00,28.8,16.0,29.86,NE,45,6.8,9.0,56,0.00,,,0.00,Rainwise IP-100,2013-11-20 05:06:00,
2013-11-20 00:11:00,28.6,16.0,29.86,NNW,337,5.4,12.0,57,0.00,,,0.00,Rainwise IP-100,2013-11-20 05:11:00,
2013-11-20 00:16:00,28.5,16.0,29.86,ENE,67,3.3,10.0,57,0.00,,,0.00,Rainwise IP-100,2013-11-20 05:16:00,
2013-11-20 00:21:00,28.4,16.0,29.87,NE,45,4.7,14.0,58,0.00,,,0.00,Rainwise IP-100,2013-11-20 05:21:00,
2013-11-20 00:26:00,28.4,16.0,29.86,NE,45,7.5,12.0,58,0.00,,,0.00,Rainwise IP-100,2013-11-20 05:26:00,
2013-11-20 00:31:00,28.4,16.0,29.87,NE,45,9.1,10.0,58,0.00,,,0.00,Rainwise IP-100,2013-11-20 05:31:00,
2013-11-20 00:36:00,28.3,16.0,29.87,North,360,4.4,12.0,58,0.00,,,0.00,Rainwise IP-100,2013-11-20 05:36:00,
2013-11-20 00:41:00,28.2,16.0,29.87,NNE,22,8.6,11.0,59,0.00,,,0.00,Rainwise IP-100,2013-11-20 05:41:00,
2013-11-20 00:46:00,28.1,16.0,29.88,North,360,7.9,11.0,59,0.00,,,0.00,Rainwise IP-100,2013-11-20 05:46:00,
2013-11-20 00:51:00,28.1,16.0,29.88,NNE,22,10.3,13.0,59,0.00,,,0.00,Rainwise IP-100,2013-11-20 05:51:00,
2013-11-20 00:56:00,28.0,16.0,29.88,NNE,22,7.5,13.0,60,0.00,,,0.00,Rainwise IP-100,2013-11-20 05:56:00,
2013-11-20 01:02:00,27.9,16.0,29.88,NE,45,4.9,9.0,60,0.00,,,0.00,Rainwise IP-100,2013-11-20 06:02:00,
2013-11-20 01:07:00,27.8,16.0,29.88,NNE,22,7.9,10.0,61,0.00,,,0.00,Rainwise IP-100,2013-11-20 06:07:00,
2013-11-20 01:12:00,27.7,16.0,29.88,North,360,7.7,12.0,61,0.00,,,0.00,Rainwise IP-100,2013-11-20 06:12:00,
2013-11-20 01:17:00,27.7,16.0,29.89,NNE,22,6.1,14.0,62,0.00,,,0.00,Rainwise IP-100,2013-11-20 06:17:00,
2013-11-20 01:22:00,27.6,16.0,29.89,NE,45,3.5,15.0,62,0.00,,,0.00,Rainwise IP-100,2013-11-20 06:22:00,
2013-11-20 01:27:00,27.5,16.0,29.89,NNE,22,5.6,8.0,62,0.00,,,0.00,Rainwise IP-100,2013-11-20 06:27:00,
2013-11-20 01:32:00,27.4,16.0,29.90,NNE,22,6.5,6.5,63,0.00,,,0.00,Rainwise IP-100,2013-11-20 06:32:00,
2013-11-20 01:37:00,27.3,18.0,29.90,NNE,22,1.2,6.0,64,0.00,,,0.00,Rainwise IP-100,2013-11-20 06:37:00,
2013-11-20 01:42:00,27.2,18.0,29.90,North,360,3.7,4.0,64,0.00,,,0.00,Rainwise IP-100,2013-11-20 06:42:00,
2013-11-20 01:47:00,26.9,18.0,29.91,NNW,337,5.4,5.4,65,0.00,,,0.00,Rainwise IP-100,2013-11-20 06:47:00,
2013-11-20 01:52:00,26.8,18.0,29.92,North,360,2.8,7.0,65,0.00,,,0.00,Rainwise IP-100,2013-11-20 06:52:00,
2013-11-20 01:57:00,26.9,18.0,29.91,North,360,2.8,6.0,65,0.00,,,0.00,Rainwise IP-100,2013-11-20 06:57:00,
2013-11-20 02:02:00,26.8,18.0,29.92,North,360,7.7,7.7,66,0.00,,,0.00,Rainwise IP-100,2013-11-20 07:02:00,
2013-11-20 02:07:00,26.7,18.0,29.92,North,360,3.7,8.0,66,0.00,,,0.00,Rainwise IP-100,2013-11-20 07:07:00,
2013-11-20 02:12:00,26.6,18.0,29.92,NNE,22,2.1,7.0,66,0.00,,,0.00,Rainwise IP-100,2013-11-20 07:12:00,
2013-11-20 02:18:00,26.6,18.0,29.92,NNE,22,2.3,6.0,67,0.00,,,0.00,Rainwise IP-100,2013-11-20 07:18:00,
2013-11-20 02:23:00,26.5,18.0,29.93,NNE,22,3.7,7.0,67,0.00,,,0.00,Rainwise IP-100,2013-11-20 07:23:00,
2013-11-20 02:28:00,26.5,18.0,29.93,NE,45,2.8,5.0,67,0.00,,,0.00,Rainwise IP-100,2013-11-20 07:28:00,
2013-11-20 02:33:00,26.5,18.0,29.93,NNW,337,5.8,6.0,67,0.00,,,0.00,Rainwise IP-100,2013-11-20 07:33:00,
2013-11-20 02:38:00,26.5,18.0,29.93,NNE,22,3.3,8.0,68,0.00,,,0.00,Rainwise IP-100,2013-11-20 07:38:00,
2013-11-20 02:43:00,26.5,18.0,29.93,NNE,22,0.0,3.0,68,0.00,,,0.00,Rainwise IP-100,2013-11-20 07:43:00,
2013-11-20 02:48:00,26.3,18.0,29.93,NNE,22,2.6,8.0,68,0.00,,,0.00,Rainwise IP-100,2013-11-20 07:48:00,
2013-11-20 02:53:00,26.3,18.0,29.94,WNW,292,2.1,5.0,68,0.00,,,0.00,Rainwise IP-100,2013-11-20 07:53:00,
2013-11-20 02:58:00,26.2,18.0,29.93,WNW,292,0.0,2.0,68,0.00,,,0.00,Rainwise IP-100,2013-11-20 07:58:00,
2013-11-20 03:03:00,26.0,18.0,29.94,NNW,337,0.0,3.0,69,0.00,,,0.00,Rainwise IP-100,2013-11-20 08:03:00,
2013-11-20 03:08:00,25.8,18.0,29.94,North,360,2.1,3.0,69,0.00,,,0.00,Rainwise IP-100,2013-11-20 08:08:00,
2013-11-20 03:13:00,25.6,18.0,29.94,NE,45,3.3,3.3,70,0.00,,,0.00,Rainwise IP-100,2013-11-20 08:13:00,
2013-11-20 03:18:00,25.6,18.0,29.94,NNE,22,1.9,3.0,70,0.00,,,0.00,Rainwise IP-100,2013-11-20 08:18:00,
2013-11-20 03:23:00,25.5,18.0,29.94,NNE,22,1.9,2.0,70,0.00,,,0.00,Rainwise IP-100,2013-11-20 08:23:00,
2013-11-20 03:28:00,25.4,18.0,29.94,NNE,22,1.9,4.0,71,0.00,,,0.00,Rainwise IP-100,2013-11-20 08:28:00,
2013-11-20 03:34:00,25.1,18.0,29.94,NNE,22,1.4,3.0,71,0.00,,,0.00,Rainwise IP-100,2013-11-20 08:34:00,
2013-11-20 03:39:00,24.9,18.0,29.94,North,360,3.3,4.0,72,0.00,,,0.00,Rainwise IP-100,2013-11-20 08:39:00,
2013-11-20 03:44:00,24.9,18.0,29.95,North,360,2.1,5.0,72,0.00,,,0.00,Rainwise IP-100,2013-11-20 08:44:00,
2013-11-20 03:49:00,25.0,18.0,29.95,NNE,22,1.6,3.0,72,0.00,,,0.00,Rainwise IP-100,2013-11-20 08:49:00,
2013-11-20 03:54:00,25.1,18.0,29.95,NNE,22,2.3,3.0,72,0.00,,,0.00,Rainwise IP-100,2013-11-20 08:54:00,
2013-11-20 03:59:00,25.0,18.0,29.95,NNE,22,3.3,3.3,72,0.00,,,0.00,Rainwise IP-100,2013-11-20 08:59:00,
2013-11-20 04:04:00,24.7,18.0,29.95,NNE,22,2.6,3.0,72,0.00,,,0.00,Rainwise IP-100,2013-11-20 09:04:00,
2013-11-20 04:09:00,24.5,18.0,29.95,NNE,22,1.9,3.0,72,0.00,,,0.00,Rainwise IP-100,2013-11-20 09:09:00,
2013-11-20 04:14:00,24.4,16.0,29.96,NNE,22,2.1,3.0,73,0.00,,,0.00,Rainwise IP-100,2013-11-20 09:14:00,
2013-11-20 04:19:00,24.3,16.0,29.96,NNE,22,1.4,2.0,73,0.00,,,0.00,Rainwise IP-100,2013-11-20 09:19:00,
2013-11-20 04:24:00,24.2,18.0,29.96,NNE,22,0.0,1.0,74,0.00,,,0.00,Rainwise IP-100,2013-11-20 09:24:00,
2013-11-20 04:29:00,24.0,18.0,29.96,NNE,22,0.0,0.0,74,0.00,,,0.00,Rainwise IP-100,2013-11-20 09:29:00,
2013-11-20 04:34:00,23.8,18.0,29.97,WSW,247,2.6,2.6,74,0.00,,,0.00,Rainwise IP-100,2013-11-20 09:34:00,
2013-11-20 04:39:00,23.9,18.0,29.98,WSW,247,1.6,3.0,75,0.00,,,0.00,Rainwise IP-100,2013-11-20 09:39:00,
2013-11-20 04:44:00,24.2,18.0,29.97,SW,225,1.9,3.0,74,0.00,,,0.00,Rainwise IP-100,2013-11-20 09:44:00,
2013-11-20 04:50:00,24.5,18.0,29.97,SW,225,0.0,3.0,74,0.00,,,0.00,Rainwise IP-100,2013-11-20 09:50:00,
2013-11-20 04:55:00,24.5,18.0,29.98,SW,225,0.0,1.0,74,0.00,,,0.00,Rainwise IP-100,2013-11-20 09:55:00,
2013-11-20 05:00:00,24.4,18.0,29.98,SW,225,0.0,1.0,74,0.00,,,0.00,Rainwise IP-100,2013-11-20 10:00:00,
2013-11-20 05:05:00,24.4,16.0,29.98,SW,225,0.0,0.0,73,0.00,,,0.00,Rainwise IP-100,2013-11-20 10:05:00,
2013-11-20 05:10:00,24.5,18.0,29.98,NNW,337,1.2,2.0,73,0.00,,,0.00,Rainwise IP-100,2013-11-20 10:10:00,
2013-11-20 05:15:00,24.4,16.0,29.99,NNW,337,0.0,3.0,72,0.00,,,0.00,Rainwise IP-100,2013-11-20 10:15:00,
2013-11-20 05:20:00,24.3,16.0,29.99,NNW,337,0.0,1.0,72,0.00,,,0.00,Rainwise IP-100,2013-11-20 10:20:00,
2013-11-20 05:25:00,24.2,16.0,30.00,NNW,337,0.0,3.0,73,0.00,,,0.00,Rainwise IP-100,2013-11-20 10:25:00,
2013-11-20 05:30:00,24.1,16.0,30.00,NNW,337,1.6,3.0,72,0.00,,,0.00,Rainwise IP-100,2013-11-20 10:30:00,
2013-11-20 05:35:00,24.0,16.0,30.00,NNW,337,0.0,3.0,72,0.00,,,0.00,Rainwise IP-100,2013-11-20 10:35:00,
2013-11-20 05:40:00,24.1,16.0,30.00,NNW,337,0.0,1.0,72,0.00,,,0.00,Rainwise IP-100,2013-11-20 10:40:00,
2013-11-20 05:45:00,24.0,16.0,30.01,NNW,337,1.2,2.0,71,0.00,,,0.00,Rainwise IP-100,2013-11-20 10:45:00,
2013-11-20 05:50:00,24.0,16.0,30.01,NNW,337,1.6,1.6,71,0.00,,,0.00,Rainwise IP-100,2013-11-20 10:50:00,
2013-11-20 05:55:00,24.0,16.0,30.01,North,360,3.0,3.0,71,0.00,,,0.00,Rainwise IP-100,2013-11-20 10:55:00,
2013-11-20 06:00:00,23.9,16.0,30.02,North,360,4.9,4.9,71,0.00,,,0.00,Rainwise IP-100,2013-11-20 11:00:00,
2013-11-20 06:06:00,23.8,16.0,30.02,NNE,22,2.8,5.0,71,0.00,,,0.00,Rainwise IP-100,2013-11-20 11:06:00,
2013-11-20 06:11:00,23.8,16.0,30.02,NNW,337,2.1,5.0,71,0.00,,,0.00,Rainwise IP-100,2013-11-20 11:11:00,
2013-11-20 06:16:00,23.8,16.0,30.02,North,360,3.7,4.0,71,0.00,,,0.00,Rainwise IP-100,2013-11-20 11:16:00,
2013-11-20 06:21:00,23.9,16.0,30.02,NNW,337,6.1,9.0,70,0.00,,,0.00,Rainwise IP-100,2013-11-20 11:21:00,
2013-11-20 06:26:00,24.1,16.0,30.03,North,360,1.4,8.0,70,0.00,,,0.00,Rainwise IP-100,2013-11-20 11:26:00,
2013-11-20 06:31:00,24.0,16.0,30.03,NNE,22,2.8,3.0,70,0.00,,,0.00,Rainwise IP-100,2013-11-20 11:31:00,
2013-11-20 06:36:00,23.7,16.0,30.04,NNW,337,1.6,5.0,71,0.00,,,0.00,Rainwise IP-100,2013-11-20 11:36:00,
2013-11-20 06:41:00,23.6,16.0,30.04,NNW,337,0.0,3.0,71,0.00,,,0.00,Rainwise IP-100,2013-11-20 11:41:00,
2013-11-20 06:46:00,23.5,16.0,30.04,NNW,337,0.0,6.0,71,0.00,,,0.00,Rainwise IP-100,2013-11-20 11:46:00,
2013-11-20 06:51:00,23.4,16.0,30.05,NNW,337,1.4,3.0,71,0.00,,,0.00,Rainwise IP-100,2013-11-20 11:51:00,
2013-11-20 06:56:00,23.3,16.0,30.04,NNW,337,2.1,2.1,71,0.00,,,0.00,Rainwise IP-100,2013-11-20 11:56:00,
2013-11-20 07:01:00,23.2,16.0,30.05,NNW,337,2.1,2.1,71,0.00,,,0.00,Rainwise IP-100,2013-11-20 12:01:00,
2013-11-20 07:06:00,23.1,16.0,30.05,NNW,337,0.0,2.0,72,0.00,,,0.00,Rainwise IP-100,2013-11-20 12:06:00,
2013-11-20 07:11:00,23.2,16.0,30.05,NNW,337,0.0,1.0,71,0.00,,,0.00,Rainwise IP-100,2013-11-20 12:11:00,
2013-11-20 07:16:00,23.3,16.0,30.06,NNW,337,0.0,1.0,71,0.00,,,0.00,Rainwise IP-100,2013-11-20 12:16:00,
2013-11-20 07:22:00,23.3,16.0,30.06,NNW,337,0.0,1.0,71,0.00,,,0.00,Rainwise IP-100,2013-11-20 12:22:00,
2013-11-20 07:27:00,23.6,16.0,30.06,NNW,337,1.6,1.6,71,0.00,,,0.00,Rainwise IP-100,2013-11-20 12:27:00,
2013-11-20 07:32:00,23.8,16.0,30.06,NNE,22,0.0,3.0,70,0.00,,,0.00,Rainwise IP-100,2013-11-20 12:32:00,
2013-11-20 07:37:00,24.2,16.0,30.06,NW,315,0.0,4.0,70,0.00,,,0.00,Rainwise IP-100,2013-11-20 12:37:00,
2013-11-20 07:42:00,24.6,18.0,30.06,NNE,22,0.0,3.0,69,0.00,,,0.00,Rainwise IP-100,2013-11-20 12:42:00,
2013-11-20 07:47:00,24.9,18.0,30.06,NNE,22,4.7,5.0,68,0.00,,,0.00,Rainwise IP-100,2013-11-20 12:47:00,
2013-11-20 07:52:00,25.2,16.0,30.06,NNE,22,4.9,8.0,67,0.00,,,0.00,Rainwise IP-100,2013-11-20 12:52:00,
2013-11-20 07:57:00,25.5,16.0,30.07,NNE,22,1.9,14.0,66,0.00,,,0.00,Rainwise IP-100,2013-11-20 12:57:00,
2013-11-20 08:02:00,25.8,16.0,30.07,NNW,337,2.6,10.0,66,0.00,,,0.00,Rainwise IP-100,2013-11-20 13:02:00,
2013-11-20 08:07:00,26.2,16.0,30.07,NNE,22,2.3,7.0,65,0.00,,,0.00,Rainwise IP-100,2013-11-20 13:07:00,
2013-11-20 08:12:00,26.7,18.0,30.08,NNE,22,3.7,5.0,64,0.00,,,0.00,Rainwise IP-100,2013-11-20 13:12:00,
2013-11-20 08:17:00,27.3,16.0,30.08,ENE,67,5.1,6.0,63,0.00,,,0.00,Rainwise IP-100,2013-11-20 13:17:00,
2013-11-20 08:22:00,27.6,16.0,30.08,NE,45,2.3,7.0,62,0.00,,,0.00,Rainwise IP-100,2013-11-20 13:22:00,
2013-11-20 08:27:00,27.9,16.0,30.09,NE,45,2.1,7.0,62,0.00,,,0.00,Rainwise IP-100,2013-11-20 13:27:00,
2013-11-20 08:32:00,28.3,16.0,30.09,NNW,337,5.1,9.0,62,0.00,,,0.00,Rainwise IP-100,2013-11-20 13:32:00,
2013-11-20 08:38:00,28.6,18.0,30.09,NNE,22,6.5,8.0,63,0.00,,,0.00,Rainwise IP-100,2013-11-20 13:38:00,
2013-11-20 08:43:00,28.8,18.0,30.09,NNE,22,9.8,10.0,62,0.00,,,0.00,Rainwise IP-100,2013-11-20 13:43:00,
2013-11-20 08:48:00,29.0,18.0,30.09,NE,45,9.6,11.0,61,0.00,,,0.00,Rainwise IP-100,2013-11-20 13:48:00,
2013-11-20 08:53:00,29.0,18.0,30.09,North,360,8.6,14.0,60,0.00,,,0.00,Rainwise IP-100,2013-11-20 13:53:00,
2013-11-20 08:58:00,29.0,16.0,30.09,ENE,67,11.2,15.0,59,0.00,,,0.00,Rainwise IP-100,2013-11-20 13:58:00,
2013-11-20 09:03:00,29.0,16.0,30.09,NNE,22,9.3,16.0,58,0.00,,,0.00,Rainwise IP-100,2013-11-20 14:03:00,
2013-11-20 09:08:00,29.1,16.0,30.09,NNE,22,6.8,12.0,58,0.00,,,0.00,Rainwise IP-100,2013-11-20 14:08:00,
2013-11-20 09:13:00,29.3,16.0,30.10,NE,45,4.0,11.0,58,0.00,,,0.00,Rainwise IP-100,2013-11-20 14:13:00,
2013-11-20 09:18:00,29.5,18.0,30.10,NNW,337,5.8,14.0,58,0.00,,,0.00,Rainwise IP-100,2013-11-20 14:18:00,
2013-11-20 09:23:00,29.7,18.0,30.10,ENE,67,3.0,13.0,57,0.00,,,0.00,Rainwise IP-100,2013-11-20 14:23:00,
2013-11-20 09:28:00,29.9,18.0,30.11,NNE,22,9.3,12.0,57,0.00,,,0.00,Rainwise IP-100,2013-11-20 14:28:00,
2013-11-20 09:33:00,30.1,18.0,30.11,North,360,10.5,13.0,56,0.00,,,0.00,Rainwise IP-100,2013-11-20 14:33:00,
2013-11-20 09:38:00,30.2,18.0,30.11,NNE,22,10.0,12.0,56,0.00,,,0.00,Rainwise IP-100,2013-11-20 14:38:00,
2013-11-20 09:43:00,30.3,16.0,30.10,NNE,22,8.9,11.0,55,0.00,,,0.00,Rainwise IP-100,2013-11-20 14:43:00,
2013-11-20 09:48:00,30.4,16.0,30.11,NNE,22,7.7,14.0,55,0.00,,,0.00,Rainwise IP-100,2013-11-20 14:48:00,
2013-11-20 09:54:00,30.6,16.0,30.11,NE,45,5.1,12.0,54,0.00,,,0.00,Rainwise IP-100,2013-11-20 14:54:00,
2013-11-20 09:59:00,30.7,16.0,30.11,ENE,67,1.9,14.0,54,0.00,,,0.00,Rainwise IP-100,2013-11-20 14:59:00,
2013-11-20 10:04:00,30.7,16.0,30.11,NNE,22,5.8,8.0,54,0.00,,,0.00,Rainwise IP-100,2013-11-20 15:04:00,
2013-11-20 10:09:00,31.0,16.0,30.11,NE,45,4.0,11.0,54,0.00,,,0.00,Rainwise IP-100,2013-11-20 15:09:00,
2013-11-20 10:14:00,31.5,18.0,30.11,NNW,337,10.0,13.0,53,0.00,,,0.00,Rainwise IP-100,2013-11-20 15:14:00,
2013-11-20 10:19:00,31.7,16.0,30.11,NNE,22,5.1,10.0,52,0.00,,,0.00,Rainwise IP-100,2013-11-20 15:19:00,
2013-11-20 10:24:00,31.8,16.0,30.11,ENE,67,5.4,13.0,52,0.00,,,0.00,Rainwise IP-100,2013-11-20 15:24:00,
2013-11-20 10:29:00,31.9,16.0,30.11,NNE,22,3.0,14.0,51,0.00,,,0.00,Rainwise IP-100,2013-11-20 15:29:00,
2013-11-20 10:34:00,31.9,16.0,30.10,NNE,22,2.6,12.0,50,0.00,,,0.00,Rainwise IP-100,2013-11-20 15:34:00,
2013-11-20 10:39:00,31.9,16.0,30.11,NNE,22,2.8,12.0,50,0.00,,,0.00,Rainwise IP-100,2013-11-20 15:39:00,
2013-11-20 10:44:00,32.1,16.0,30.11,NNE,22,2.8,8.0,50,0.00,,,0.00,Rainwise IP-100,2013-11-20 15:44:00,
2013-11-20 10:49:00,32.4,16.0,30.10,NNE,22,7.2,10.0,49,0.00,,,0.00,Rainwise IP-100,2013-11-20 15:49:00,
2013-11-20 10:54:00,32.6,16.0,30.10,NNE,22,10.5,10.5,49,0.00,,,0.00,Rainwise IP-100,2013-11-20 15:54:00,
2013-11-20 10:59:00,32.8,16.0,30.11,North,360,7.7,12.0,48,0.00,,,0.00,Rainwise IP-100,2013-11-20 15:59:00,
2013-11-20 11:04:00,33.0,16.0,30.11,ENE,67,0.0,8.0,48,0.00,,,0.00,Rainwise IP-100,2013-11-20 16:04:00,
2013-11-20 11:10:00,33.1,16.0,30.11,NNE,22,5.1,6.0,49,0.00,,,0.00,Rainwise IP-100,2013-11-20 16:10:00,
2013-11-20 11:15:00,33.3,16.0,30.10,North,360,6.3,7.0,49,0.00,,,0.00,Rainwise IP-100,2013-11-20 16:15:00,
2013-11-20 11:20:00,33.4,16.0,30.10,ENE,67,4.7,10.0,48,0.00,,,0.00,Rainwise IP-100,2013-11-20 16:20:00,
2013-11-20 11:25:00,33.1,16.0,30.10,NNE,22,7.2,12.0,47,0.00,,,0.00,Rainwise IP-100,2013-11-20 16:25:00,
2013-11-20 11:30:00,32.9,16.0,30.10,NNE,22,3.3,11.0,46,0.00,,,0.00,Rainwise IP-100,2013-11-20 16:30:00,
2013-11-20 11:35:00,33.2,16.0,30.10,NE,45,4.2,8.0,46,0.00,,,0.00,Rainwise IP-100,2013-11-20 16:35:00,
2013-11-20 11:40:00,33.3,16.0,30.10,NNE,22,6.1,7.0,46,0.00,,,0.00,Rainwise IP-100,2013-11-20 16:40:00,
2013-11-20 11:45:00,33.2,16.0,30.09,ENE,67,5.6,10.0,46,0.00,,,0.00,Rainwise IP-100,2013-11-20 16:45:00,
2013-11-20 11:50:00,33.3,16.0,30.10,NNW,337,10.0,10.0,46,0.00,,,0.00,Rainwise IP-100,2013-11-20 16:50:00,
2013-11-20 11:55:00,33.5,16.0,30.10,East,90,2.8,10.0,45,0.00,,,0.00,Rainwise IP-100,2013-11-20 16:55:00,
2013-11-20 12:00:00,33.7,16.0,30.10,NNE,22,4.4,6.0,45,0.00,,,0.00,Rainwise IP-100,2013-11-20 17:00:00,
2013-11-20 12:05:00,33.9,16.0,30.10,NE,45,4.9,7.0,45,0.00,,,0.00,Rainwise IP-100,2013-11-20 17:05:00,
2013-11-20 12:10:00,34.1,16.0,30.10,NNW,337,4.0,8.0,45,0.00,,,0.00,Rainwise IP-100,2013-11-20 17:10:00,
2013-11-20 12:15:00,34.4,16.0,30.09,North,360,3.0,6.0,45,0.00,,,0.00,Rainwise IP-100,2013-11-20 17:15:00,
2013-11-20 12:20:00,34.8,16.0,30.09,North,360,3.3,8.0,45,0.00,,,0.00,Rainwise IP-100,2013-11-20 17:20:00,
2013-11-20 12:26:00,35.0,16.0,30.09,NNW,337,2.8,11.0,44,0.00,,,0.00,Rainwise IP-100,2013-11-20 17:26:00,
2013-11-20 12:31:00,35.0,16.0,30.09,NW,315,3.5,7.0,43,0.00,,,0.00,Rainwise IP-100,2013-11-20 17:31:00,
2013-11-20 12:36:00,35.0,16.0,30.09,NNE,22,6.3,7.0,43,0.00,,,0.00,Rainwise IP-100,2013-11-20 17:36:00,
2013-11-20 12:41:00,34.9,16.0,30.09,NNE,22,5.1,11.0,43,0.00,,,0.00,Rainwise IP-100,2013-11-20 17:41:00,
2013-11-20 12:46:00,35.0,14.0,30.09,NNW,337,5.8,11.0,42,0.00,,,0.00,Rainwise IP-100,2013-11-20 17:46:00,
2013-11-20 12:51:00,35.4,14.0,30.09,SSE,157,1.4,8.0,42,0.00,,,0.00,Rainwise IP-100,2013-11-20 17:51:00,
2013-11-20 12:56:00,35.8,16.0,30.09,NNE,22,3.7,9.0,41,0.00,,,0.00,Rainwise IP-100,2013-11-20 17:56:00,
2013-11-20 13:01:00,35.8,16.0,30.09,NNE,22,7.7,9.0,41,0.00,,,0.00,Rainwise IP-100,2013-11-20 18:01:00,
2013-11-20 13:06:00,35.7,16.0,30.09,NNE,22,2.1,7.0,41,0.00,,,0.00,Rainwise IP-100,2013-11-20 18:06:00,
2013-11-20 13:11:00,36.0,16.0,30.09,North,360,4.4,4.4,41,0.00,,,0.00,Rainwise IP-100,2013-11-20 18:11:00,
2013-11-20 13:16:00,36.4,14.0,30.09,NNW,337,5.4,9.0,40,0.00,,,0.00,Rainwise IP-100,2013-11-20 18:16:00,
2013-11-20 13:21:00,36.8,16.0,30.09,NNE,22,6.5,9.0,40,0.00,,,0.00,Rainwise IP-100,2013-11-20 18:21:00,
2013-11-20 13:26:00,37.2,16.0,30.09,NNE,22,6.1,9.0,39,0.00,,,0.00,Rainwise IP-100,2013-11-20 18:26:00,
2013-11-20 13:31:00,37.1,14.0,30.09,North,360,5.6,10.0,38,0.00,,,0.00,Rainwise IP-100,2013-11-20 18:31:00,
2013-11-20 13:36:00,37.0,14.0,30.09,NNE,22,4.2,10.0,38,0.00,,,0.00,Rainwise IP-100,2013-11-20 18:36:00,
2013-11-20 13:42:00,36.8,14.0,30.09,NE,45,3.3,6.0,38,0.00,,,0.00,Rainwise IP-100,2013-11-20 18:42:00,
2013-11-20 13:47:00,36.7,14.0,30.09,NNW,337,1.9,5.0,38,0.00,,,0.00,Rainwise IP-100,2013-11-20 18:47:00,
2013-11-20 13:52:00,37.0,14.0,30.09,NNE,22,2.3,10.0,38,0.00,,,0.00,Rainwise IP-100,2013-11-20 18:52:00,
2013-11-20 13:57:00,37.4,14.0,30.09,NNE,22,5.6,6.0,37,0.00,,,0.00,Rainwise IP-100,2013-11-20 18:57:00,
2013-11-20 14:02:00,37.8,16.0,30.09,NNW,337,4.7,9.0,37,0.00,,,0.00,Rainwise IP-100,2013-11-20 19:02:00,
2013-11-20 14:07:00,38.0,16.0,30.09,East,90,1.2,6.0,37,0.00,,,0.00,Rainwise IP-100,2013-11-20 19:07:00,
2013-11-20 14:12:00,37.7,16.0,30.09,NE,45,3.3,5.0,37,0.00,,,0.00,Rainwise IP-100,2013-11-20 19:12:00,
2013-11-20 14:17:00,37.8,16.0,30.09,North,360,2.1,6.0,37,0.00,,,0.00,Rainwise IP-100,2013-11-20 19:17:00,
2013-11-20 14:22:00,38.5,16.0,30.09,North,360,5.4,9.0,36,0.00,,,0.00,Rainwise IP-100,2013-11-20 19:22:00,
2013-11-20 14:27:00,38.6,16.0,30.09,North,360,2.6,6.0,36,0.00,,,0.00,Rainwise IP-100,2013-11-20 19:27:00,
2013-11-20 14:32:00,38.7,16.0,30.09,NNW,337,4.0,4.0,36,0.00,,,0.00,Rainwise IP-100,2013-11-20 19:32:00,
2013-11-20 14:37:00,38.8,16.0,30.09,NNE,22,1.2,4.0,36,0.00,,,0.00,Rainwise IP-100,2013-11-20 19:37:00,
2013-11-20 14:42:00,39.0,16.0,30.09,SSW,202,1.4,4.0,36,0.00,,,0.00,Rainwise IP-100,2013-11-20 19:42:00,
2013-11-20 14:47:00,38.7,16.0,30.09,North,360,4.0,6.0,36,0.00,,,0.00,Rainwise IP-100,2013-11-20 19:47:00,
2013-11-20 14:52:00,38.5,16.0,30.10,NNW,337,2.6,6.0,36,0.00,,,0.00,Rainwise IP-100,2013-11-20 19:52:00,
2013-11-20 14:58:00,38.7,14.0,30.09,NNW,337,2.6,6.0,35,0.00,,,0.00,Rainwise IP-100,2013-11-20 19:58:00,
2013-11-20 15:03:00,38.9,14.0,30.10,NNW,337,3.7,4.0,35,0.00,,,0.00,Rainwise IP-100,2013-11-20 20:03:00,
2013-11-20 15:08:00,39.1,14.0,30.09,NNW,337,5.8,5.8,35,0.00,,,0.00,Rainwise IP-100,2013-11-20 20:08:00,
2013-11-20 15:13:00,39.1,14.0,30.09,NNE,22,1.6,6.0,35,0.00,,,0.00,Rainwise IP-100,2013-11-20 20:13:00,
2013-11-20 15:18:00,39.1,14.0,30.10,NW,315,0.0,1.0,35,0.00,,,0.00,Rainwise IP-100,2013-11-20 20:18:00,
2013-11-20 15:23:00,38.9,14.0,30.10,NNW,337,0.0,3.0,35,0.00,,,0.00,Rainwise IP-100,2013-11-20 20:23:00,
2013-11-20 15:28:00,38.4,14.0,30.10,North,360,1.6,2.0,34,0.00,,,0.00,Rainwise IP-100,2013-11-20 20:28:00,
2013-11-20 15:33:00,37.6,14.0,30.09,North,360,2.1,2.1,35,0.00,,,0.00,Rainwise IP-100,2013-11-20 20:33:00,
2013-11-20 15:38:00,36.7,14.0,30.09,WNW,292,1.6,2.0,37,0.00,,,0.00,Rainwise IP-100,2013-11-20 20:38:00,
2013-11-20 15:43:00,36.1,14.0,30.10,WNW,292,1.9,2.0,38,0.00,,,0.00,Rainwise IP-100,2013-11-20 20:43:00,
2013-11-20 15:48:00,35.8,14.0,30.10,WNW,292,0.0,2.0,38,0.00,,,0.00,Rainwise IP-100,2013-11-20 20:48:00,
2013-11-20 15:53:00,35.7,14.0,30.10,West,270,0.0,3.0,38,0.00,,,0.00,Rainwise IP-100,2013-11-20 20:53:00,
2013-11-20 15:58:00,35.3,14.0,30.10,West,270,2.3,2.3,39,0.00,,,0.00,Rainwise IP-100,2013-11-20 20:58:00,
2013-11-20 16:03:00,34.8,14.0,30.10,NNW,337,0.0,3.0,39,0.00,,,0.00,Rainwise IP-100,2013-11-20 21:03:00,
2013-11-20 16:08:00,34.6,14.0,30.10,NNW,337,0.0,0.0,40,0.00,,,0.00,Rainwise IP-100,2013-11-20 21:08:00,
2013-11-20 16:14:00,34.1,14.0,30.10,NNW,337,0.0,0.0,41,0.00,,,0.00,Rainwise IP-100,2013-11-20 21:14:00,
2013-11-20 16:19:00,33.1,16.0,30.10,NNW,337,0.0,0.0,45,0.00,,,0.00,Rainwise IP-100,2013-11-20 21:19:00,
2013-11-20 16:24:00,32.0,16.0,30.10,NNW,337,0.0,0.0,48,0.00,,,0.00,Rainwise IP-100,2013-11-20 21:24:00,
2013-11-20 16:29:00,31.8,16.0,30.10,NNW,337,0.0,0.0,48,0.00,,,0.00,Rainwise IP-100,2013-11-20 21:29:00,
2013-11-20 16:34:00,31.5,16.0,30.10,NNW,337,0.0,0.0,50,0.00,,,0.00,Rainwise IP-100,2013-11-20 21:34:00,
2013-11-20 16:39:00,31.0,16.0,30.10,NNW,337,0.0,0.0,52,0.00,,,0.00,Rainwise IP-100,2013-11-20 21:39:00,
2013-11-20 16:44:00,30.4,16.0,30.10,NNW,337,0.0,0.0,53,0.00,,,0.00,Rainwise IP-100,2013-11-20 21:44:00,
2013-11-20 16:49:00,30.0,16.0,30.11,NNW,337,0.0,0.0,54,0.00,,,0.00,Rainwise IP-100,2013-11-20 21:49:00,
2013-11-20 16:54:00,29.7,16.0,30.11,NNW,337,0.0,0.0,54,0.00,,,0.00,Rainwise IP-100,2013-11-20 21:54:00,
2013-11-20 16:59:00,29.3,16.0,30.11,NNW,337,0.0,0.0,55,0.00,,,0.00,Rainwise IP-100,2013-11-20 21:59:00,
2013-11-20 17:04:00,29.0,16.0,30.11,NNW,337,0.0,0.0,55,0.00,,,0.00,Rainwise IP-100,2013-11-20 22:04:00,
2013-11-20 17:09:00,29.0,16.0,30.11,WNW,292,0.0,1.0,56,0.00,,,0.00,Rainwise IP-100,2013-11-20 22:09:00,
2013-11-20 17:14:00,29.0,16.0,30.11,WNW,292,0.0,1.0,56,0.00,,,0.00,Rainwise IP-100,2013-11-20 22:14:00,
2013-11-20 17:19:00,28.9,16.0,30.11,WNW,292,0.0,1.0,57,0.00,,,0.00,Rainwise IP-100,2013-11-20 22:19:00,
2013-11-20 17:24:00,28.7,16.0,30.12,West,270,1.2,1.2,58,0.00,,,0.00,Rainwise IP-100,2013-11-20 22:24:00,
2013-11-20 17:30:00,28.5,16.0,30.11,West,270,1.6,2.0,59,0.00,,,0.00,Rainwise IP-100,2013-11-20 22:30:00,
2013-11-20 17:35:00,28.4,16.0,30.12,West,270,0.0,2.0,59,0.00,,,0.00,Rainwise IP-100,2013-11-20 22:35:00,
2013-11-20 17:40:00,28.2,16.0,30.12,North,360,0.0,3.0,58,0.00,,,0.00,Rainwise IP-100,2013-11-20 22:40:00,
2013-11-20 17:45:00,28.0,16.0,30.12,North,360,1.9,2.0,59,0.00,,,0.00,Rainwise IP-100,2013-11-20 22:45:00,
2013-11-20 17:50:00,28.0,16.0,30.12,NNE,22,1.2,2.0,60,0.00,,,0.00,Rainwise IP-100,2013-11-20 22:50:00,
2013-11-20 17:55:00,27.7,16.0,30.13,NNE,22,0.0,2.0,61,0.00,,,0.00,Rainwise IP-100,2013-11-20 22:55:00,
2013-11-20 18:00:00,27.7,16.0,30.12,NNE,22,0.0,1.0,61,0.00,,,0.00,Rainwise IP-100,2013-11-20 23:00:00,
2013-11-20 18:05:00,27.7,16.0,30.13,NNE,22,1.2,1.2,62,0.00,,,0.00,Rainwise IP-100,2013-11-20 23:05:00,
2013-11-20 18:10:00,27.4,16.0,30.12,North,360,4.9,4.9,62,0.00,,,0.00,Rainwise IP-100,2013-11-20 23:10:00,
2013-11-20 18:15:00,27.3,16.0,30.12,North,360,1.4,5.0,62,0.00,,,0.00,Rainwise IP-100,2013-11-20 23:15:00,
2013-11-20 18:20:00,27.4,16.0,30.12,North,360,0.0,2.0,62,0.00,,,0.00,Rainwise IP-100,2013-11-20 23:20:00,
2013-11-20 18:25:00,27.3,16.0,30.13,North,360,0.0,0.0,62,0.00,,,0.00,Rainwise IP-100,2013-11-20 23:25:00,
2013-11-20 18:30:00,27.1,16.0,30.13,SW,225,1.2,2.0,63,0.00,,,0.00,Rainwise IP-100,2013-11-20 23:30:00,
2013-11-20 18:35:00,26.9,16.0,30.13,NNW,337,3.3,3.3,63,0.00,,,0.00,Rainwise IP-100,2013-11-20 23:35:00,
2013-11-20 18:40:00,27.0,16.0,30.13,NNW,337,4.4,5.0,63,0.00,,,0.00,Rainwise IP-100,2013-11-20 23:40:00,
2013-11-20 18:46:00,27.1,16.0,30.13,North,360,2.8,7.0,63,0.00,,,0.00,Rainwise IP-100,2013-11-20 23:46:00,
2013-11-20 18:51:00,27.0,16.0,30.14,North,360,1.4,4.0,63,0.00,,,0.00,Rainwise IP-100,2013-11-20 23:51:00,
2013-11-20 18:56:00,26.9,16.0,30.14,NNW,337,0.0,2.0,63,0.00,,,0.00,Rainwise IP-100,2013-11-20 23:56:00,
2013-11-20 19:01:00,26.9,18.0,30.14,NNW,337,0.0,0.0,64,0.00,,,0.00,Rainwise IP-100,2013-11-21 00:01:00,
2013-11-20 19:06:00,26.6,18.0,30.14,NNW,337,2.1,2.1,65,0.00,,,0.00,Rainwise IP-100,2013-11-21 00:06:00,
2013-11-20 19:11:00,26.6,18.0,30.15,NNW,337,0.0,2.0,65,0.00,,,0.00,Rainwise IP-100,2013-11-21 00:11:00,
2013-11-20 19:16:00,26.6,18.0,30.15,SW,225,2.3,2.3,65,0.00,,,0.00,Rainwise IP-100,2013-11-21 00:16:00,
2013-11-20 19:21:00,26.4,16.0,30.15,SW,225,0.0,1.0,65,0.00,,,0.00,Rainwise IP-100,2013-11-21 00:21:00,
2013-11-20 19:26:00,26.0,16.0,30.14,NNW,337,3.7,4.0,66,0.00,,,0.00,Rainwise IP-100,2013-11-21 00:26:00,
2013-11-20 19:31:00,26.0,16.0,30.15,NNW,337,0.0,4.0,67,0.00,,,0.00,Rainwise IP-100,2013-11-21 00:31:00,
2013-11-20 19:36:00,25.9,16.0,30.14,SW,225,1.4,1.4,67,0.00,,,0.00,Rainwise IP-100,2013-11-21 00:36:00,
2013-11-20 19:41:00,25.5,16.0,30.15,SW,225,0.0,0.0,67,0.00,,,0.00,Rainwise IP-100,2013-11-21 00:41:00,
2013-11-20 19:46:00,25.3,18.0,30.15,SW,225,0.0,0.0,68,0.00,,,0.00,Rainwise IP-100,2013-11-21 00:46:00,
2013-11-20 19:51:00,25.3,18.0,30.15,SW,225,2.1,2.1,68,0.00,,,0.00,Rainwise IP-100,2013-11-21 00:51:00,
2013-11-20 19:56:00,25.3,18.0,30.15,North,360,4.2,4.2,69,0.00,,,0.00,Rainwise IP-100,2013-11-21 00:56:00,
2013-11-20 20:02:00,25.1,18.0,30.15,North,360,0.0,4.0,69,0.00,,,0.00,Rainwise IP-100,2013-11-21 01:02:00,
2013-11-20 20:07:00,25.0,18.0,30.16,WNW,292,1.9,0.0,69,0.00,,,0.00,Rainwise IP-100,2013-11-21 01:07:00,
2013-11-20 20:12:00,25.2,18.0,30.16,WSW,247,0.0,2.0,69,0.00,,,0.00,Rainwise IP-100,2013-11-21 01:12:00,
2013-11-20 20:17:00,25.0,18.0,30.15,NNW,337,2.3,3.0,69,0.00,,,0.00,Rainwise IP-100,2013-11-21 01:17:00,
2013-11-20 20:22:00,24.8,18.0,30.16,NNW,337,0.0,2.0,70,0.00,,,0.00,Rainwise IP-100,2013-11-21 01:22:00,
2013-11-20 20:27:00,24.7,18.0,30.16,NNW,337,0.0,1.0,70,0.00,,,0.00,Rainwise IP-100,2013-11-21 01:27:00,
2013-11-20 20:32:00,24.5,18.0,30.16,WSW,247,0.0,0.0,71,0.00,,,0.00,Rainwise IP-100,2013-11-21 01:32:00,
2013-11-20 20:37:00,24.2,16.0,30.16,NNW,337,1.9,2.0,71,0.00,,,0.00,Rainwise IP-100,2013-11-21 01:37:00,
2013-11-20 20:42:00,23.9,16.0,30.16,NNW,337,3.0,3.0,72,0.00,,,0.00,Rainwise IP-100,2013-11-21 01:42:00,
2013-11-20 20:47:00,24.0,16.0,30.16,NNW,337,2.3,4.0,72,0.00,,,0.00,Rainwise IP-100,2013-11-21 01:47:00,
2013-11-20 20:52:00,24.2,16.0,30.16,NNW,337,0.0,2.0,72,0.00,,,0.00,Rainwise IP-100,2013-11-21 01:52:00,
2013-11-20 20:57:00,24.2,16.0,30.16,NNW,337,5.4,6.0,72,0.00,,,0.00,Rainwise IP-100,2013-11-21 01:57:00,
2013-11-20 21:02:00,23.9,16.0,30.16,NNW,337,1.6,5.0,73,0.00,,,0.00,Rainwise IP-100,2013-11-21 02:02:00,
2013-11-20 21:07:00,23.9,16.0,30.16,North,360,2.8,3.0,73,0.00,,,0.00,Rainwise IP-100,2013-11-21 02:07:00,
2013-11-20 21:12:00,23.9,16.0,30.16,NNW,337,1.9,4.0,73,0.00,,,0.00,Rainwise IP-100,2013-11-21 02:12:00,
2013-11-20 21:18:00,23.8,16.0,30.16,NNW,337,0.0,0.0,73,0.00,,,0.00,Rainwise IP-100,2013-11-21 02:18:00,
2013-11-20 21:23:00,23.8,16.0,30.16,NNW,337,0.0,0.0,73,0.00,,,0.00,Rainwise IP-100,2013-11-21 02:23:00,
2013-11-20 21:28:00,23.4,16.0,30.16,NNW,337,0.0,0.0,74,0.00,,,0.00,Rainwise IP-100,2013-11-21 02:28:00,
2013-11-20 21:33:00,23.3,16.0,30.17,NNW,337,0.0,0.0,74,0.00,,,0.00,Rainwise IP-100,2013-11-21 02:33:00,
2013-11-20 21:38:00,23.2,16.0,30.17,NNW,337,2.3,2.3,75,0.00,,,0.00,Rainwise IP-100,2013-11-21 02:38:00,
2013-11-20 21:43:00,23.2,16.0,30.17,NNW,337,2.3,0.0,75,0.00,,,0.00,Rainwise IP-100,2013-11-21 02:43:00,
2013-11-20 21:48:00,23.1,16.0,30.17,NNW,337,0.0,0.0,75,0.00,,,0.00,Rainwise IP-100,2013-11-21 02:48:00,
2013-11-20 21:53:00,22.9,16.0,30.17,NNW,337,0.0,0.0,75,0.00,,,0.00,Rainwise IP-100,2013-11-21 02:53:00,
2013-11-20 21:58:00,22.9,16.0,30.17,NNW,337,0.0,0.0,75,0.00,,,0.00,Rainwise IP-100,2013-11-21 02:58:00,
2013-11-20 22:08:00,22.8,16.0,30.17,NNW,337,0.0,0.0,76,0.00,,,0.00,Rainwise IP-100,2013-11-21 03:08:00,
2013-11-20 22:13:00,22.6,16.0,30.17,NNW,337,2.1,4.0,76,0.00,,,0.00,Rainwise IP-100,2013-11-21 03:13:00,
2013-11-20 22:18:00,22.6,16.0,30.16,NNW,337,1.6,2.0,76,0.00,,,0.00,Rainwise IP-100,2013-11-21 03:18:00,
2013-11-20 22:23:00,22.7,16.0,30.17,NNW,337,0.0,2.0,77,0.00,,,0.00,Rainwise IP-100,2013-11-21 03:23:00,
2013-11-20 22:28:00,22.7,16.0,30.17,NNW,337,0.0,0.0,77,0.00,,,0.00,Rainwise IP-100,2013-11-21 03:28:00,
2013-11-20 22:33:00,22.4,16.0,30.17,NNW,337,0.0,0.0,77,0.00,,,0.00,Rainwise IP-100,2013-11-21 03:33:00,
2013-11-20 22:38:00,22.3,16.0,30.17,NNW,337,0.0,0.0,77,0.00,,,0.00,Rainwise IP-100,2013-11-21 03:38:00,
2013-11-20 22:43:00,22.1,16.0,30.17,NNW,337,0.0,0.0,78,0.00,,,0.00,Rainwise IP-100,2013-11-21 03:43:00,
2013-11-20 22:48:00,22.0,16.0,30.17,NNW,337,1.2,0.0,78,0.00,,,0.00,Rainwise IP-100,2013-11-21 03:48:00,
2013-11-20 22:53:00,21.7,16.0,30.17,NNW,337,0.0,2.0,79,0.00,,,0.00,Rainwise IP-100,2013-11-21 03:53:00,
2013-11-20 22:58:00,21.7,16.0,30.17,NNW,337,0.0,0.0,79,0.00,,,0.00,Rainwise IP-100,2013-11-21 03:58:00,
2013-11-20 23:03:00,21.6,18.0,30.17,NNW,337,0.0,0.0,80,0.00,,,0.00,Rainwise IP-100,2013-11-21 04:03:00,
2013-11-20 23:08:00,21.4,16.0,30.17,NNW,337,0.0,0.0,80,0.00,,,0.00,Rainwise IP-100,2013-11-21 04:08:00,
2013-11-20 23:13:00,21.2,16.0,30.17,NNW,337,0.0,1.0,80,0.00,,,0.00,Rainwise IP-100,2013-11-21 04:13:00,
2013-11-20 23:19:00,20.9,16.0,30.17,NNW,337,3.5,4.0,81,0.00,,,0.00,Rainwise IP-100,2013-11-21 04:19:00,
2013-11-20 23:24:00,20.9,16.0,30.17,NNW,337,0.0,4.0,81,0.00,,,0.00,Rainwise IP-100,2013-11-21 04:24:00,
2013-11-20 23:29:00,21.1,16.0,30.17,NNW,337,0.0,0.0,81,0.00,,,0.00,Rainwise IP-100,2013-11-21 04:29:00,
2013-11-20 23:34:00,21.0,16.0,30.17,NNW,337,0.0,0.0,81,0.00,,,0.00,Rainwise IP-100,2013-11-21 04:34:00,
2013-11-20 23:39:00,20.8,16.0,30.17,NNW,337,1.2,1.2,81,0.00,,,0.00,Rainwise IP-100,2013-11-21 04:39:00,
2013-11-20 23:44:00,20.6,16.0,30.16,NNW,337,1.9,4.0,82,0.00,,,0.00,Rainwise IP-100,2013-11-21 04:44:00,
2013-11-20 23:49:00,20.7,16.0,30.17,NNW,337,0.0,2.0,82,0.00,,,0.00,Rainwise IP-100,2013-11-21 04:49:00,
2013-11-20 23:54:00,20.7,16.0,30.17,NNW,337,0.0,0.0,82,0.00,,,0.00,Rainwise IP-100,2013-11-21 04:54:00,
2013-11-20 23:59:00,20.5,16.0,30.16,NNW,337,0.0,2.0,82,0.00,,,0.00,Rainwise IP-100,2013-11-21 04:59:00,